DO1SN-13 Weather Reports


time (UTC)temp
F
wind
direction
speed
knots
gust
knots
rain 1hr
in
rain 24hr
in
rain mn
in
humidity
%
barometer
mb
20260507093154 55 0 0.9 6.1 0.00 0.00 0.00 1016.2
20260507090137 54 0 1.7 4.3 0.00 0.00 0.00 1015.7
20260507070632 66 0 1.7 8.7 0.00 0.00 0.00 1014.4
20260507065425 61 0 2.6 8.7 0.00 0.00 0.00 1014.2
20260507062408 64 0 1.7 7.0 0.00 0.00 0.00 1014.1
20260507030415 55 0 0.0 1.7 0.00 0.00 0.00 1012.2
20260507015134 53 0 0.9 3.5 0.00 0.00 0.00 1011.8
20260507014531 53 0 0.9 3.5 0.00 0.00 0.00 1011.8
20260507011514 54 0 1.7 5.2 0.00 0.00 0.00 1011.7
20260507004457 54 0 1.7 7.8 0.00 0.00 0.00 1011.8
20260507000836 54 0 1.7 7.8 0.00 0.00 0.00 1011.8
20260506233216 54 0 1.7 8.7 0.00 0.00 0.00 1011.7
20260506230159 55 0 1.7 7.0 0.00 0.00 0.00 1011.8
20260506222538 55 0 1.7 7.0 0.00 0.00 0.00 1011.6
20260506221935 55 0 1.7 7.0 0.00 0.00 0.00 1011.7
20260506221331 56 0 1.7 7.0 0.00 0.00 0.00 1011.6
20260506220728 55 0 2.6 7.0 0.00 0.00 0.00 1011.5
20260506220125 56 0 1.7 6.1 0.00 0.00 0.00 1011.5
20260506214918 56 0 2.6 6.1 0.00 0.00 0.00 1011.4
20260506213711 57 0 0.0 5.2 0.00 0.00 0.00 1011.3
20260506213108 58 0 0.9 5.2 0.00 0.00 0.00 1011.1
20260506212504 57 0 0.9 4.3 0.00 0.00 0.00 1011.1
20260506211901 57 0 0.0 4.3 0.00 0.00 0.00 1011.1
20260506211257 58 0 0.9 2.6 0.00 0.00 0.00 1011.1
20260506210654 58 0 0.0 3.5 0.00 0.00 0.00 1010.9
20260506210051 58 0 0.0 3.5 0.00 0.00 0.00 1010.8
20260506205447 58 0 0.0 3.5 0.00 0.00 0.00 1010.8
20260506204845 58 0 0.0 2.6 0.00 0.00 0.00 1010.9
20260506204240 58 0 0.0 2.6 0.00 0.00 0.00 1010.8
20260506203637 57 0 0.0 2.6 0.00 0.00 0.00 1010.9
20260506203033 58 0 0.0 3.5 0.00 0.00 0.00 1010.9
20260506202430 58 0 0.9 3.5 0.00 0.00 0.00 1010.9
20260506201826 57 0 0.9 4.3 0.00 0.00 0.00 1010.2
20260506201223 58 0 0.0 7.0 0.00 0.00 0.00 1010.2
20260506200620 57 0 1.7 7.0 0.00 0.00 0.00 1010.7
20260506200016 57 0 1.7 7.0 0.00 0.00 0.00 1010.6
20260506195413 57 0 0.9 3.5 0.00 0.00 0.00 1010.4
20260506194809 57 0 0.9 3.5 0.00 0.00 0.00 1009.8
20260506194206 56 0 0.0 3.5 0.00 0.00 0.00 1009.7
20260506193603 58 0 0.9 3.5 0.00 0.00 0.00 1010.3
20260506192959 57 0 0.9 3.5 0.00 0.00 0.00 1009.7
20260506192356 56 0 0.0 4.3 0.00 0.00 0.00 1009.8
20260506191752 57 0 0.9 4.3 0.00 0.00 0.00 1010.2
20260506191149 57 0 0.9 4.3 0.00 0.00 0.00 1010.1
20260506190546 57 0 0.0 1.7 0.00 0.00 0.00 1010.1
20260506185942 58 0 0.0 3.5 0.00 0.00 0.00 1009.9
20260506185339 58 0 0.9 6.1 0.00 0.00 0.00 1009.8
20260506184735 58 0 0.9 6.1 0.00 0.00 0.00 1009.8
20260506184132 58 0 1.7 7.0 0.00 0.00 0.00 1009.7
20260506183528 58 0 0.9 7.0 0.00 0.00 0.00 1009.5
20260506181718 58 0 1.7 3.5 0.00 0.00 0.00 1009.3
20260506181115 58 0 0.9 3.5 0.00 0.00 0.00 1009.3
20260506180512 59 0 0.9 2.6 0.00 0.00 0.00 1009.2
20260506175908 58 0 0.9 3.5 0.00 0.00 0.00 1009.0
20260506175306 60 0 0.9 3.5 0.00 0.00 0.00 1009.1
20260506174701 59 0 0.9 3.5 0.00 0.00 0.00 1009.0
20260506174058 66 0 1.7 5.2 0.00 0.00 0.00 1009.1
20260506173454 62 0 1.7 7.8 0.00 0.00 0.00 1009.0
20260506172851 63 0 1.7 7.8 0.00 0.00 0.00 1009.0
20260506172248 60 0 2.6 7.8 0.00 0.00 0.00 1008.9
20260506171644 63 0 1.7 5.2 0.00 0.00 0.00 1008.9
20260506171040 66 0 1.7 5.2 0.00 0.00 0.00 1008.7
20260506165834 69 0 0.9 5.2 0.00 0.00 0.00 1008.3
20260506165230 70 0 0.9 5.2 0.00 0.00 0.00 1008.2
20260506164627 69 0 1.7 7.8 0.00 0.00 0.00 1008.2
20260506163420 59 0 1.7 7.8 0.00 0.00 0.00 1007.8
20260506162213 61 0 0.9 5.2 0.00 0.00 0.00 1008.2
20260506161610 63 0 1.7 3.5 0.00 0.00 0.00 1008.4
20260506161006 65 0 0.9 3.5 0.00 0.00 0.00 1008.3
20260506155800 60 0 0.9 5.2 0.00 0.00 0.00 1008.4
20260506154553 60 0 0.9 7.0 0.00 0.00 0.00 1008.3
20260506153949 60 0 0.9 7.0 0.00 0.00 0.00 1008.4
20260506153346 60 0 1.7 7.0 0.00 0.00 0.00 1008.5
20260506152742 61 0 2.6 6.1 0.00 0.00 0.00 1008.5
20260506151536 70 0 0.9 3.5 0.00 0.00 0.00 1007.3
20260506101848 75 0 0.9 3.5 0.00 0.00 0.00 1008.6